Weather History for KMWH - November, 2012

Change the Weather History Date:

Sunday, November 18, 2012

  Actual Average Record
Temperature  
Mean Temperature 42 °F 37 °F  
Max Temperature 50 °F 45 °F 64 °F (2003)
Min Temperature 34 °F 29 °F -1 °F (1985)
Degree Days  
Heating Degree Days 23 28  
Month to date heating degree days 418 452  
Since 1 July heating degree days 943 1089  
Cooling Degree Days 0 0  
Month to date cooling degree days 0 0  
Year to date cooling degree days 719 615  
Moisture  
Dew Point 34 °F    
Average Humidity 70    
Maximum Humidity 89    
Minimum Humidity 50    
Precipitation  
Precipitation 0.05 in 0.04 in 0.23 in (2007)
Month to date precipitation 0.73 0.69  
Year to date precipitation 7.33 7.16  
Sea Level Pressure  
Sea Level Pressure 29.83 in    
Wind  
Wind Speed 12 mph (SSE)    
Max Wind Speed 25 mph    
Max Gust Speed 33 mph    
Visibility 10 miles    
Events Rain    
T = Trace of Precipitation, MM = Missing Value Source: NWS Daily Summary

Daily Weather History Graph

Daily Weather History Graph

Search for Another Location

Airport or City:

Trip Planner

Search our weather history database for the weather conditions in past years. The results will help you decide how hot, cold, wet, or windy it might be!

Date:

Astronomy

Nov. 18, 2012 Rise Set
Actual Time 7:06 AM PST 4:18 PM PST
Civil Twilight 6:32 AM PST 4:51 PM PST
Nautical Twilight 5:55 AM PST 5:29 PM PST
Astronomical Twilight 5:19 AM PST 6:05 PM PST
Moon 11:31 AM PST (11/18) 9:49 PM PST (11/18)
Length of Visible Light 10h 19m
Length of Day
9h 11m
Waxing Crescent, 31% of the Moon is Illuminated
Nov 18
Waxing Crescent
Nov 20
First Quarter
Nov 28
Full
Dec 6
Last Quarter
Dec 13
New

Hourly Weather History & Observations

Time (PST) Temp. Windchill Dew Point Humidity Pressure Visibility Wind Dir Wind Speed Gust Speed Precip Events Conditions
12:52 AM 41.0 °F 35.2 °F 37.0 °F 86% 29.74 in 10.0 mi South 9.2 mph - N/A   Clear
1:52 AM 39.9 °F - 35.1 °F 83% 29.77 in 10.0 mi Calm Calm - N/A   Clear
2:52 AM 39.0 °F 33.4 °F 33.1 °F 79% 29.79 in 10.0 mi South 8.1 mph - N/A   Clear
3:52 AM 39.0 °F 32.8 °F 32.0 °F 76% 29.81 in 10.0 mi SSW 9.2 mph - N/A   Clear
4:52 AM 35.1 °F 29.3 °F 30.9 °F 85% 29.84 in 10.0 mi SSE 6.9 mph - N/A   Clear
5:52 AM 34.0 °F - 30.9 °F 89% 29.85 in 10.0 mi Calm Calm - N/A   Clear
6:52 AM 34.0 °F 29.8 °F 30.9 °F 89% 29.87 in 10.0 mi SE 4.6 mph - N/A   Clear
7:52 AM 36.0 °F 31.1 °F 32.0 °F 86% 29.88 in 10.0 mi ENE 5.8 mph - N/A   Clear
8:52 AM 42.1 °F 35.7 °F 33.1 °F 70% 29.88 in 10.0 mi South 11.5 mph - N/A   Mostly Cloudy
9:52 AM 42.1 °F 35.7 °F 33.1 °F 70% 29.88 in 10.0 mi South 11.5 mph - N/A   Overcast
10:52 AM 44.1 °F 36.8 °F 33.1 °F 65% 29.88 in 10.0 mi South 16.1 mph - N/A   Overcast
11:52 AM 45.0 °F 38.5 °F 33.1 °F 63% 29.86 in 10.0 mi South 13.8 mph - N/A   Overcast
12:52 PM 46.9 °F - 32.0 °F 56% 29.85 in 10.0 mi South 16.1 mph 20.7 mph N/A   Overcast
1:52 PM 46.9 °F - 34.0 °F 61% 29.84 in 10.0 mi SSE 9.2 mph - N/A   Mostly Cloudy
2:52 PM 46.9 °F - 35.1 °F 63% 29.84 in 10.0 mi SSE 6.9 mph - N/A   Scattered Clouds
3:52 PM 46.9 °F - 36.0 °F 66% 29.83 in 10.0 mi SE 10.4 mph - N/A   Overcast
4:52 PM 46.9 °F - 36.0 °F 66% 29.83 in 10.0 mi SSE 11.5 mph - N/A   Overcast
5:52 PM 48.9 °F - 33.1 °F 54% 29.82 in 10.0 mi SSE 17.3 mph - 0.00 in   Overcast
6:52 PM 48.9 °F - 33.1 °F 54% 29.80 in 10.0 mi South 16.1 mph 25.3 mph N/A   Overcast
7:52 PM 50.0 °F - 32.0 °F 50% 29.78 in 10.0 mi South 19.6 mph 25.3 mph N/A   Overcast
8:52 PM 46.0 °F 38.5 °F 37.0 °F 71% 29.80 in 10.0 mi South 19.6 mph 29.9 mph 0.05 in Rain Light Rain
9:52 PM 45.0 °F 37.4 °F 37.9 °F 76% 29.77 in 10.0 mi SSE 18.4 mph - 0.00 in Rain Light Rain
10:52 PM 45.0 °F 37.4 °F 37.9 °F 76% 29.77 in 10.0 mi SSE 18.4 mph - N/A   Overcast
11:52 PM 46.0 °F 38.5 °F 37.9 °F 73% 29.88 in 10.0 mi SSE 19.6 mph - N/A   Overcast